CW6294 Weather Reports


time (UTC)temp
C
wind
direction
speed
KPH
gust
KPH
rain 1hr
cm
rain 24hr
cm
rain mn
cm
humidity
%
barometer
mb
20240222100353 1 122 0.0 0.0 0.00 0.00 0.00 97 1018.6
20240222093344 1 122 0.0 0.0 0.00 0.00 0.00 97 1019.1
20240222090329 0 122 0.0 0.0 0.00 0.00 0.00 96 1019.5
20240222083329 1 122 0.0 0.0 0.00 0.00 0.00 96 1019.6
20240222080318 1 122 0.0 0.0 0.00 0.00 0.00 95 1019.6
20240222073242 1 122 0.0 0.0 0.00 0.00 0.00 94 1019.9
20240222070226 1 122 0.0 0.0 0.00 0.00 0.00 94 1020.4
20240222063232 1 123 0.0 3.2 0.00 0.00 0.00 93 1020.5
20240222060224 2 125 0.0 0.0 0.00 0.00 0.00 93 1020.7
20240222053156 2 119 0.0 0.0 0.00 0.00 0.00 92 1021.1
20240222050115 2 123 0.0 9.7 0.00 0.00 0.00 91 1021.4
20240222043106 2 123 0.0 9.7 0.00 0.00 0.00 90 1022.0
20240222033056 3 94 4.8 20.9 0.00 0.00 0.00 87 1022.3
20240222030055 3 80 4.8 11.3 0.00 0.00 0.00 85 1022.7
20240222023053 4 107 0.0 12.9 0.00 0.00 0.00 81 1023.0
20240222020053 5 97 6.4 12.9 0.00 0.00 0.00 77 1022.7
20240222010040 5 77 0.0 8.0 0.00 0.00 0.00 74 1022.9
20240222003038 6 109 0.0 8.0 0.00 0.00 0.00 73 1023.0
20240222001417 6 96 0.0 9.7 0.00 0.00 0.00 72 1023.1
20240221233033 6 119 1.6 16.1 0.00 0.00 0.00 69 1022.9
20240221230030 7 105 3.2 14.5 0.00 0.00 0.00 67 1022.7
20240221223029 7 77 6.4 17.7 0.00 0.00 0.00 63 1022.9
20240221220025 8 100 6.4 17.7 0.00 0.00 0.00 61 1022.9
20240221213031 8 65 4.8 14.5 0.00 0.00 0.00 63 1023.1
20240221210005 9 81 4.8 12.9 0.00 0.00 0.00 60 1023.5
20240221202956 9 119 3.2 14.5 0.00 0.00 0.00 61 1023.5
20240221201335 10 74 3.2 14.5 0.00 0.00 0.00 60 1023.9
20240221192959 8 113 4.8 14.5 0.00 0.00 0.00 62 1024.5
20240221185939 9 53 1.6 12.9 0.00 0.00 0.00 62 1024.8
20240221175933 8 88 1.6 11.3 0.00 0.00 0.00 64 1025.6
20240221172931 7 111 3.2 12.9 0.00 0.00 0.00 65 1026.2
20240221165932 7 121 1.6 11.3 0.00 0.00 0.00 67 1027.1
20240221162922 6 63 4.8 12.9 0.00 0.00 0.00 69 1028.3
20240221155916 5 118 0.0 12.9 0.00 0.00 0.00 74 1028.6
20240221154304 5 59 3.2 11.3 0.00 0.00 0.00 75 1029.0
20240221145908 3 78 1.6 9.7 0.00 0.00 0.00 78 1029.4
20240221135914 2 69 4.8 11.3 0.00 0.00 0.00 87 1029.6
20240221132859 2 61 3.2 9.7 0.00 0.00 0.00 90 1029.2
20240221125905 1 68 0.0 0.0 0.00 0.00 0.00 96 1029.3
20240221122834 0 68 0.0 0.0 0.00 0.00 0.00 96 1028.9
20240221121226 0 68 0.0 0.0 0.00 0.00 0.00 95 1029.0
20240221114221 0 68 0.0 0.0 0.00 0.00 0.00 95 1028.9
20240221111207 0 67 0.0 0.0 0.00 0.00 0.00 95 1028.9
20240221102810 0 67 0.0 0.0 0.00 0.00 0.00 94 1028.8